Weather History for Bennington, VT

Change the Weather History Date:

Wednesday, May 14, 2014

  Actual Average Record
Temperature  
Mean Temperature 66 °F 55 °F  
Max Temperature 79 °F 67 °F 81 °F (2004)
Min Temperature 52 °F 43 °F 29 °F (2013)
Degree Days  
Heating Degree Days 0 11  
Month to date heating degree days 125 174  
Since 1 July heating degree days 7118 6997  
Cooling Degree Days 1 0  
Month to date cooling degree days 5 0  
Year to date cooling degree days 9 3  
Growing Degree Days 16 (Base 50)    
Moisture  
Dew Point 47 °F    
Average Humidity 58    
Maximum Humidity 77    
Minimum Humidity 38    
Precipitation  
Precipitation T in 0.11 in 0.50 in (2012)
Month to date precipitation 0.49 1.44  
Year to date precipitation 10.96 12.85  
Sea Level Pressure  
Sea Level Pressure 30.20 in    
Wind  
Wind Speed 8 mph (South)    
Max Wind Speed 17 mph    
Max Gust Speed 22 mph    
Visibility 10 miles    
Events Rain    
T = Trace of Precipitation, MM = Missing Value Source: NWS Daily Summary

Daily Weather History Graph

Daily Weather History Graph

Search for Another Location

Airport:

Trip Planner

Search our weather history database for the weather conditions in past years. The results will help you decide how hot, cold, wet, or windy it might be!

Date:

Astronomy

May. 14, 2014 Rise Set
Actual Time 5:31 AM EDT 8:08 PM EDT
Civil Twilight 4:58 AM EDT 8:40 PM EDT
Nautical Twilight 4:18 AM EDT 9:21 PM EDT
Astronomical Twilight 3:32 AM EDT 10:07 PM EDT
Moon 8:10 PM EDT (5/14) 5:29 AM EDT (5/14)
Length of Visible Light 15h 41m
Length of Day
14h 37m
Full, 100% of the Moon is Illuminated
May 14
Full
May 14
Full
May 21
Last Quarter
May 28
New
Jun 5
First Quarter

Hourly Weather History & Observations

Time (EDT) Temp. Dew Point Humidity Pressure Visibility Wind Dir Wind Speed Gust Speed Precip Events Conditions
12:54 AM 55.9 °F 41.0 °F 57% 30.22 in 10.0 mi ESE 10.4 mph 18.4 mph N/A   Scattered Clouds
1:54 AM 55.9 °F 41.0 °F 57% 30.23 in 10.0 mi Variable 6.9 mph - N/A   Mostly Cloudy
2:54 AM 55.9 °F 41.0 °F 57% 30.24 in 10.0 mi Variable 3.5 mph - N/A   Overcast
3:54 AM 55.0 °F 41.0 °F 59% 30.24 in 10.0 mi ESE 8.1 mph - 0.00 in Rain Light Rain
4:28 AM 55.0 °F 41.0 °F 59% 30.22 in 10.0 mi Calm Calm - 0.00 in   Overcast
4:54 AM 54.0 °F 41.0 °F 62% 30.22 in 10.0 mi SSW 8.1 mph - 0.00 in   Overcast
5:29 AM 53.1 °F 44.1 °F 71% 30.18 in 10.0 mi Variable 3.5 mph - 0.00 in Rain Light Rain
5:54 AM 52.0 °F 44.1 °F 74% 30.17 in 10.0 mi NNW 6.9 mph - 0.00 in   Mostly Cloudy
6:47 AM 53.1 °F 42.1 °F 66% 30.25 in 10.0 mi SSW 6.9 mph - N/A   Mostly Cloudy
6:54 AM 54.0 °F 43.0 °F 66% 30.25 in 10.0 mi South 9.2 mph - N/A   Mostly Cloudy
7:54 AM 55.9 °F 43.0 °F 62% 30.22 in 10.0 mi Variable 5.8 mph - N/A   Clear
8:54 AM 55.0 °F 42.1 °F 62% 30.25 in 10.0 mi SSW 9.2 mph - N/A   Clear
9:54 AM 59.0 °F 44.1 °F 58% 30.24 in 10.0 mi Calm Calm - N/A   Clear
11:54 AM 68.0 °F 46.0 °F 45% 30.22 in 10.0 mi SW 10.4 mph - N/A   Clear
12:54 PM 73.0 °F 50.0 °F 44% 30.20 in 10.0 mi South 11.5 mph - N/A   Clear
1:54 PM 73.9 °F 54.0 °F 50% 30.18 in 10.0 mi SSW 9.2 mph - N/A   Clear
2:54 PM 77.0 °F 55.0 °F 47% 30.17 in 10.0 mi North - - N/A   Clear
3:54 PM 77.0 °F 53.1 °F 43% 30.15 in 10.0 mi Variable 6.9 mph 18.4 mph N/A   Clear
4:54 PM 79.0 °F 53.1 °F 40% 30.14 in 10.0 mi Variable 5.8 mph - N/A   Clear
5:54 PM 78.1 °F 52.0 °F 40% 30.15 in 10.0 mi South 11.5 mph - N/A   Clear
6:54 PM 75.9 °F 48.9 °F 38% 30.15 in 10.0 mi South 15.0 mph - N/A   Clear
7:54 PM 72.0 °F 46.0 °F 40% 30.17 in 10.0 mi SE 13.8 mph - N/A   Clear
8:54 PM 69.1 °F 48.0 °F 47% 30.19 in 10.0 mi ESE 8.1 mph - N/A   Clear
9:54 PM 68.0 °F 52.0 °F 56% 30.19 in 10.0 mi SSW 8.1 mph - N/A   Clear
10:54 PM 66.9 °F 53.1 °F 61% 30.18 in 10.0 mi East 10.4 mph 17.3 mph N/A   Partly Cloudy
11:54 PM 64.9 °F 54.0 °F 68% 30.21 in 10.0 mi South 9.2 mph - N/A   Partly Cloudy